This is the latest recevied weather packets stored in our database for station/object OK4ZAW-16. If no packets are shown the sender has not sent any weather packets the latest 10 day(s).
| Time | Temp. | Humidity | Pressure | Rain* | Wind** | Luminosity | Snow |
|---|---|---|---|---|---|---|---|
| 1777837532 | 11.11° C | 96% | 1018 hPa | - | - | 150 W/m² | - |
| 1777837116 | 11.11° C | 94% | 1018 hPa | - | - | 150 W/m² | - |
| 1777836699 | 11.11° C | 92% | 1018 hPa | - | - | 150 W/m² | - |
| 1777836282 | 11.11° C | 91% | 1017.7 hPa | - | - | 150 W/m² | - |
| 1777835866 | 11.11° C | 90% | 1017.9 hPa | - | - | 150 W/m² | - |
| 1777835449 | 11.11° C | 88% | 1017.9 hPa | - | - | 150 W/m² | - |
| 1777835033 | 11.11° C | 86% | 1017.8 hPa | - | - | 150 W/m² | - |
| 1777834616 | 11.67° C | 83% | 1017.7 hPa | - | - | 150 W/m² | - |
| 1777834199 | 11.67° C | 82% | 1017.7 hPa | - | - | 150 W/m² | - |
| 1777833783 | 11.67° C | 81% | 1017.9 hPa | - | - | 150 W/m² | - |
| 1777833366 | 11.67° C | 80% | 1017.8 hPa | - | - | 150 W/m² | - |
| 1777832949 | 11.67° C | 79% | 1017.7 hPa | - | - | 150 W/m² | - |
| 1777832533 | 11.67° C | 77% | 1017.6 hPa | - | - | 150 W/m² | - |
| 1777832116 | 12.22° C | 74% | 1017.6 hPa | - | - | 150 W/m² | - |
| 1777831699 | 12.22° C | 71% | 1017.6 hPa | - | - | 150 W/m² | - |
| 1777831283 | 12.22° C | 69% | 1017.5 hPa | - | - | 150 W/m² | - |
| 1777830866 | 12.78° C | 68% | 1017.6 hPa | - | - | 150 W/m² | - |
| 1777830449 | 12.78° C | 67% | 1017.7 hPa | - | - | 150 W/m² | - |
| 1777830032 | 13.33° C | 65% | 1017.7 hPa | - | - | 150 W/m² | - |
| 1777829615 | 13.33° C | 63% | 1017.6 hPa | - | - | 150 W/m² | - |
| 1777829198 | 13.33° C | 61% | 1017.5 hPa | - | - | 150 W/m² | - |
| 1777828781 | 13.89° C | 63% | 1017.7 hPa | - | - | 150 W/m² | - |
| 1777828364 | 13.89° C | 58% | 1017.7 hPa | - | - | 150 W/m² | - |
| 1777827530 | 15° C | 52% | 1017.7 hPa | - | - | 150 W/m² | - |
| 1777827113 | 15° C | 49% | 1017.8 hPa | - | - | 150 W/m² | - |
* Rain since midnight (hover to see other rain measurements)
** Current wind speed in m/s (hover to see current wind gust speed)